Location: ???????
(55.3754°N, 39.3545°E)
Time: 10:51:31
(UTC+00:00)

Cosmos 1959 Rocket - Pass Details

Date: 14 April 2026
Orbit: 946 x 997 km, 82.9° (Epoch: 10 May)

Event Time Altitude Azimuth Distance (km) Brightness Sun altitude
Rises 17:56:51 0° 183° (S) 3,706 7.2 -12.2°
Reaches altitude 10° 17:59:22 10° 182° (S) 2,759 6.5 -12.5°
Maximum altitude 18:05:42 77° 97° (E) 1,024 4.5 -13.2°
Drops below altitude 10° 18:12:01 10° 13° (NNE) 2,756 7.2 -13.9°
Sets 18:14:32 0° 13° (NNE) 3,702 8.0 -14.1°
